Back to catalog

STARLINK-3755

AliveCommunicationsVLEO
NORAD 52307·PAYLOAD·🇺🇸 United States

Launched Apr 21, 2022 from Cape Canaveral Space Force Station

Loading…

Next Passes (next 24 hours)

TLE

FreshSource: CelesTrak SupGP

Epoch: Sep 14, 2026, 13:38 UTC

1 52307C 22041AY  26257.56854167  .00033166  00000+0  98018-3 0  2574
2 52307  53.1582 319.1221 0001154  69.6091  45.3093 15.34364851    19

Track STARLINK-3755 in real time with AllMySat

Download on the App Store